Date String (YYYY-MM-DD hh:mm:ss) UTC,Instrument flags,Ambient pressure (hPa),Sample flow (lpm),Bypass flow (lpm),Sample temperature (°C),Ambient temperature (°C),ASC tube jacket temperature (°C),LED temperature (°C),Box temperature (°C),Sample RH (%),Span deviation,Mass concentration (μg/m³),Mass concentration (μg/m³),Mass concentration (μg/m³)
DateTimeUTC,F1_M11,P_M11,Q1_M11,Q2_M11,T1_M11,T2_M11,T3_M11,T4_M11,T5_M11,U1_M11,ZSPAN_M11,X0_M11,X2_M11,X1_M11
2023-03-03 19:00:00,,0814.2,5.01,0.00,22.6,21.0,00.0,31.3,24.4,11.6,-001.5,0011.78,0007.45,0007.05
2023-03-03 19:01:00,,0814.3,5.01,0.00,22.6,21.1,00.0,31.3,24.4,12.0,-001.9,0011.97,0007.58,0007.14
2023-03-03 19:02:00,,0814.2,4.99,0.00,22.6,21.1,00.0,31.3,24.4,12.3,-002.3,0012.24,0007.75,0007.27
2023-03-03 19:03:00,,0814.2,4.98,0.00,22.6,21.1,00.0,31.3,24.4,12.2,-002.5,0012.34,0007.84,0007.36
2023-03-03 19:04:00,,0814.2,5.00,0.00,22.6,21.1,00.0,31.3,24.4,12.1,-002.1,0012.41,0007.92,0007.43
2023-03-03 19:05:00,,0814.2,5.01,0.00,22.6,21.2,00.0,31.3,24.5,12.3,-002.0,0012.39,0007.98,0007.49
2023-03-03 19:06:00,,0814.2,4.99,0.00,22.6,21.1,00.0,31.4,24.4,12.3,-001.6,0012.08,0008.06,0007.56
2023-03-03 19:07:00,,0813.9,5.00,0.00,22.6,21.1,00.0,31.3,24.4,12.2,-001.6,0012.12,0008.11,0007.61
2023-03-03 19:08:00,,0813.6,5.00,0.00,22.6,21.1,00.0,31.3,24.4,12.2,-001.7,0012.17,0008.15,0007.63
2023-03-03 19:09:00,,0813.6,5.01,0.00,22.6,21.1,00.0,31.3,24.4,12.5,-001.7,0012.13,0008.25,0007.69
2023-03-03 19:10:00,,0813.6,4.99,0.00,22.6,21.0,00.0,31.3,24.4,12.5,-001.8,0012.23,0008.39,0007.82
2023-03-03 19:11:00,,0813.5,5.00,0.00,22.6,20.9,00.0,31.3,24.4,12.5,-002.3,0012.83,0008.56,0008.01
2023-03-03 19:12:00,,0813.5,5.01,0.00,22.6,20.9,00.0,31.3,24.4,12.5,-002.4,0013.68,0008.71,0008.15
2023-03-03 19:13:00,,0813.5,4.99,0.00,22.6,21.0,00.0,31.3,24.4,12.6,-002.4,0014.03,0008.79,0008.25
2023-03-03 19:14:00,,0813.5,5.00,0.00,22.6,20.9,00.0,31.3,24.4,12.4,-002.3,0014.45,0008.88,0008.34
2023-03-03 19:15:00,,0813.6,5.00,0.00,22.6,20.9,00.0,31.3,24.4,12.5,-002.4,0015.15,0008.97,0008.41
2023-03-03 19:16:00,,0813.5,5.00,0.00,22.6,20.9,00.0,31.3,24.3,12.4,-002.3,0015.00,0009.01,0008.47
2023-03-03 19:17:00,,0813.5,5.03,0.00,22.6,20.9,00.0,31.3,24.3,12.4,-002.5,0015.18,0009.03,0008.50
2023-03-03 19:18:00,,0813.6,5.00,0.00,22.5,20.9,00.0,31.3,24.3,12.5,-002.4,0015.26,0009.04,0008.55
2023-03-03 19:19:00,,0813.5,5.00,0.00,22.5,20.8,00.0,31.3,24.3,12.5,-002.3,0015.33,0009.12,0008.64
2023-03-03 19:20:00,,0813.5,5.00,0.00,22.5,20.8,00.0,31.3,24.3,12.2,-002.3,0015.29,0009.07,0008.62
2023-03-03 19:21:00,,0813.5,4.97,0.00,22.5,20.8,00.0,31.3,24.3,12.2,-001.9,0015.08,0008.94,0008.51
2023-03-03 19:22:00,,0813.5,5.03,0.00,22.5,20.8,00.0,31.3,24.3,12.1,-001.7,0014.36,0008.78,0008.37
2023-03-03 19:23:00,,0813.5,5.03,0.00,22.5,20.8,00.0,31.3,24.3,11.9,-001.6,0013.75,0008.59,0008.19
2023-03-03 19:24:00,,0813.4,5.01,0.00,22.5,20.7,00.0,31.3,24.3,11.8,-001.2,0013.70,0008.44,0008.04
2023-03-03 19:25:00,,0813.4,4.99,0.00,22.5,20.7,00.0,31.3,24.2,12.0,-001.1,0013.16,0008.28,0007.91
2023-03-03 19:26:00,,0813.4,5.01,0.00,22.5,20.7,00.0,31.3,24.2,12.0,-000.8,0012.48,0008.20,0007.83
2023-03-03 19:27:00,,0813.4,4.99,0.00,22.5,20.7,00.0,31.3,24.2,12.2,-001.1,0012.55,0008.21,0007.81
2023-03-03 19:28:00,,0813.3,5.00,0.00,22.5,20.7,00.0,31.2,24.2,12.6,-001.4,0012.62,0008.32,0007.88
2023-03-03 19:29:00,,0813.3,5.01,0.00,22.4,20.7,00.0,31.2,24.2,12.6,-001.6,0012.61,0008.42,0007.96
2023-03-03 19:30:00,,0813.3,5.01,0.00,22.4,20.8,00.0,31.2,24.2,12.5,-001.5,0012.82,0008.48,0008.00
2023-03-03 19:31:00,,0813.3,4.98,0.00,22.4,20.8,00.0,31.2,24.2,12.5,-001.2,0012.95,0008.49,0008.01
2023-03-03 19:32:00,,0813.3,4.98,0.00,22.5,20.8,00.0,31.2,24.2,12.2,-001.7,0012.88,0008.48,0008.00
2023-03-03 19:33:00,,0813.3,4.98,0.00,22.4,20.8,00.0,31.2,24.2,12.4,-001.9,0013.02,0008.56,0008.08
2023-03-03 19:34:00,,0813.3,5.01,0.00,22.5,20.8,00.0,31.2,24.2,12.1,-001.7,0013.02,0008.69,0008.22
2023-03-03 19:35:00,,0813.3,5.00,0.00,22.5,20.9,00.0,31.2,24.3,12.0,-001.7,0012.64,0008.83,0008.35
2023-03-03 19:36:00,,0813.2,5.00,0.00,22.5,20.9,00.0,31.2,24.3,12.1,-001.9,0012.92,0008.99,0008.46
2023-03-03 19:37:00,,0813.2,5.00,0.00,22.5,20.9,00.0,31.2,24.3,12.2,-001.9,0013.07,0009.08,0008.55
2023-03-03 19:38:00,,0813.2,5.00,0.00,22.5,20.9,00.0,31.2,24.3,12.1,-001.6,0013.23,0009.11,0008.59
2023-03-03 19:39:00,,0813.2,5.02,0.00,22.5,20.8,00.0,31.2,24.3,12.1,-001.4,0013.15,0009.02,0008.54
2023-03-03 19:40:00,,0813.1,5.01,0.00,22.5,20.8,00.0,31.2,24.2,11.9,-000.9,0013.51,0008.96,0008.48
2023-03-03 19:41:00,,0813.1,4.99,0.00,22.4,20.8,00.0,31.2,24.2,11.9,-000.8,0013.80,0008.89,0008.41
2023-03-03 19:42:00,,0813.1,4.99,0.00,22.4,20.8,00.0,31.2,24.2,12.0,-001.3,0014.82,0008.87,0008.39
2023-03-03 19:43:00,,0813.0,5.01,0.00,22.4,20.8,00.0,31.2,24.2,12.2,-001.3,0014.95,0008.92,0008.43
2023-03-03 19:44:00,,0813.2,4.99,0.00,22.4,20.7,00.0,31.2,24.2,12.1,-001.1,0015.56,0008.94,0008.45
2023-03-03 19:45:00,,0813.2,5.00,0.00,22.4,20.6,00.0,31.2,24.2,12.0,-000.8,0015.66,0008.94,0008.42
2023-03-03 19:46:00,,0813.1,5.00,0.00,22.4,20.6,00.0,31.2,24.1,11.9,-001.0,0015.74,0008.95,0008.43
2023-03-03 19:47:00,,0813.1,4.99,0.00,22.4,20.6,00.0,31.2,24.1,11.9,-001.0,0016.25,0008.95,0008.42
2023-03-03 19:48:00,,0812.9,5.00,0.00,22.4,20.6,00.0,31.2,24.2,11.9,-001.3,0016.39,0008.90,0008.40
2023-03-03 19:49:00,,0812.9,5.01,0.00,22.4,20.6,00.0,31.2,24.2,11.5,-001.5,0016.13,0008.79,0008.29
2023-03-03 19:50:00,,0812.9,5.01,0.00,22.4,20.6,00.0,31.2,24.1,11.6,-001.9,0016.01,0008.75,0008.21
2023-03-03 19:51:00,,0813.0,5.01,0.00,22.4,20.6,00.0,31.1,24.1,11.7,-002.2,0015.56,0008.71,0008.15
2023-03-03 19:52:00,,0813.1,4.99,0.00,22.4,21.4,00.0,31.1,24.3,12.0,-002.1,0015.06,0008.70,0008.13
2023-03-03 19:53:00,,0813.2,4.98,0.00,22.5,22.6,00.0,31.1,24.5,11.8,-001.8,0014.12,0008.75,0008.14
2023-03-03 19:54:00,,0813.0,5.00,0.00,22.6,22.7,00.0,31.2,24.6,11.6,-001.7,0014.66,0008.71,0008.10
2023-03-03 19:55:00,,0812.9,5.00,0.00,22.6,22.3,00.0,31.2,24.6,11.5,-001.8,0014.01,0008.61,0008.02
2023-03-03 19:56:00,,0812.9,5.01,0.00,22.7,22.0,00.0,31.2,24.6,11.9,-002.1,0014.32,0008.62,0008.05
2023-03-03 19:57:00,,0812.9,4.99,0.00,22.7,21.7,00.0,31.3,24.5,12.0,-002.1,0014.34,0008.71,0008.15
2023-03-03 19:58:00,,0812.8,4.99,0.00,22.7,21.5,00.0,31.3,24.5,12.1,-002.1,0014.17,0008.83,0008.28
2023-03-03 19:59:00,,0812.8,5.01,0.00,22.6,21.4,00.0,31.3,24.5,12.3,-001.9,0014.46,0009.11,0008.51
